Regional Weather Roundup
Issued by NWS Lake Charles, LA

Home | Current Version | Previous Version | Text Only | Print | Product List | Glossary On
Versions: 1 2 3 4 5 6 7 8 9 10 11 12 13 14 15 16 17 18 19 20 21 22 23 24 25 26 27 28 29 30 31 32 33 34 35 36 37 38 39 40 41 42 43 44 45 46 47 48 49 50
359
ASUS44 KLCH 280810
RWRLCH
REGIONAL WEATHER ROUNDUP
NATIONAL WEATHER SERVICE LAKE CHARLES LA
300 AM CDT FRI APR 28 2017

Note: "fair" indicates few or no clouds below 12,000 feet with no
significant weather and/or obstructions to visibility.


ACROSS SOUTHEAST TEXAS

CITY           SKY/WX    TMP DP  RH WIND       PRES   REMARKS
BEAUMONT       CLOUDY    77  72  84 SE14G21   29.65F
BEAUMONT CITY  CLOUDY    76  72  87 SE8       29.66F
ORANGE         CLOUDY    76  74  92 S8        29.68F
JASPER           N/A     70  66  87 E5        29.68F
$$

ACROSS CENTRAL LOUISIANA

CITY           SKY/WX    TMP DP  RH WIND       PRES   REMARKS
LEESVILLE      CLOUDY    68  63  83 SE8       29.67F
FULLERTON      CLOUDY    70  65  84 VRB3      29.66F
ALEXANDRIA INT CLOUDY    67  61  81 SE8       29.68F
ESLER FIELD    MOCLDY    60  59  96 CALM      29.71F
DERIDDER       CLOUDY    68  67  95 SE5       29.70F
OAKDALE        CLOUDY    66  64  96 CALM      29.70F
OPELOUSAS      CLOUDY    69  66  88 CALM      29.71F
$$

ACROSS SOUTHWEST AND SOUTH CENTRAL LOUISIANA

CITY           SKY/WX    TMP DP  RH WIND       PRES   REMARKS
SULPHUR        CLOUDY    77  75  93 SE14      29.68F
LAKE CHARLES   CLOUDY    77  73  87 S13       29.68F
CHENNAULT INT  CLOUDY    65  63  95 SE9G16    29.68F
CAMERON PHI    CLOUDY    77  75  94 S15G22    29.67S FOG
DEQUINCY       CLOUDY    70  68  92 E3        29.68F
JENNINGS       CLOUDY    75  72  89 SE7       29.70S
LAFAYETTE      CLOUDY    80  74  81 S12G20    29.71F
NEW IBERIA     CLOUDY    78  72  81 S17G26    29.71F
ABBEVILLE      CLOUDY    75  75 100 SE15      29.71F
PATTERSON      CLOUDY    78  74  87 S12       29.74S
SALT POINT       N/A     76  74  93 SE7         N/A
$$

SELECTED SITES ACROSS THE REGION

CITY           SKY/WX    TMP DP  RH WIND       PRES   REMARKS
HOUSTON BUSH   CLOUDY    75  69  81 S9        29.63F
HOUSTON HOBBY  CLOUDY    75  71  87 S9        29.62F
GALVESTON      CLOUDY    77  75  93 SE12      29.64F
COLLEGE STAT   CLOUDY    71  66  84 S12       29.61F
CONROE         CLOUDY    69  65  86 SE6       29.63F
HUNTSVILLE     CLOUDY    71  64  78 S6        29.63S
LUFKIN         CLOUDY    66  61  84 SE5       29.66S
SHREVEPORT     PTCLDY    64  57  78 SE8       29.67F
MONROE         PTCLDY    62  58  86 CALM      29.74F
NATCHEZ MS     CLEAR     65  62  90 S10       29.74F
BATON ROUGE    MOCLDY    70  68  93 E7        29.74F
N.O. INTL ARPT MOCLDY    77  74  90 S14       29.76S
SLIDELL        CLOUDY    76  73  91 S12       29.78S
$$

MARINE REPORTS

STATION/POSITION TIME  SKY/WX   TEMP    WIND        PRES    VSBY
                                AIR SEA DIR/SP/G
                 (UTC)          (F)     (DEG/KT/KT) (MB)    (MI)
BUOY 30 S HIGH I 0750            76 75  160/ 12/ 14 1003.7F
WVE H/P(F/S)=  3/ 5

SEA RIM ST PARK  0800            75     150/ 12/ 13 1004.7F
PORT ARTHUR      0748            75 75  150/  8/ 11 1004.5F
SABINE PASS N    0742            76 76  150/ 10/ 14 1005.9F
TEXAS POINT      NOT AVBL
CALCASIEU PASS   0748            76 75  180/ 13/ 20   N/A
LK CHARLES BEACH 0748            74 73              1005.4F
MARSH ISLAND     0700            77                   N/A
FRESH WATER LOCK 0748            77 75  140/ 11/ 15 1006.0S
AMERADA PASS     0748            77 71  130/  7/ 12 1006.7R
$$




USA.gov is the U.S. government's official web portal to all federal, state and local government web resources and services.